Radiation Dose at Monitoring Post of Fukushima Daini Nuclear Power Station
Date,Time,MP-1(microSv/h),MP-2(microSv/h),MP-3(microSv/h),MP-4(microSv/h),MP-5(microSv/h),MP-6(microSv/h),MP-7(microSv/h),Wind Direction,Wind Velocity(m/s),Rain
2019/11/14,00:00,0.186,0.164,0.277,0.259,0.262,0.143,0.087,south,8.6,No
2019/11/14,00:10,0.186,0.163,0.276,0.258,0.262,0.142,0.087,south,9.0,No
2019/11/14,00:20,0.187,0.164,0.278,0.261,0.261,0.143,0.088,south,8.7,No
2019/11/14,00:30,0.186,0.163,0.276,0.260,0.262,0.142,0.088,south,8.8,No
2019/11/14,00:40,0.188,0.164,0.277,0.260,0.261,0.143,0.087,south,7.8,No
2019/11/14,00:50,0.186,0.165,0.275,0.258,0.262,0.142,0.087,south,7.6,No
2019/11/14,01:00,0.187,0.164,0.278,0.260,0.263,0.143,0.087,south,8.8,No
2019/11/14,01:10,0.186,0.164,0.277,0.260,0.262,0.142,0.087,south-southwest,9.6,No
2019/11/14,01:20,0.186,0.164,0.278,0.261,0.261,0.143,0.087,south-southwest,9.5,No
2019/11/14,01:30,0.186,0.163,0.276,0.260,0.261,0.142,0.088,south-southwest,9.3,No
2019/11/14,01:40,0.186,0.164,0.278,0.261,0.262,0.142,0.088,southwest,7.8,No
2019/11/14,01:50,0.186,0.164,0.275,0.260,0.261,0.142,0.087,south-southwest,6.1,No
2019/11/14,02:00,0.186,0.164,0.276,0.260,0.262,0.143,0.087,south-southwest,6.4,No
2019/11/14,02:10,0.185,0.163,0.278,0.260,0.261,0.142,0.088,south-southwest,6.9,No
2019/11/14,02:20,0.187,0.164,0.275,0.259,0.262,0.142,0.087,south-southwest,7.0,No
2019/11/14,02:30,0.187,0.162,0.278,0.261,0.260,0.141,0.088,south,8.2,No
2019/11/14,02:40,0.186,0.165,0.276,0.259,0.263,0.143,0.087,south,9.2,No
2019/11/14,02:50,0.187,0.164,0.277,0.260,0.261,0.143,0.087,south,9.8,No
2019/11/14,03:00,0.186,0.163,0.276,0.259,0.263,0.143,0.087,south,9.8,No
2019/11/14,03:10,0.188,0.165,0.276,0.260,0.261,0.143,0.087,south,7.2,No
2019/11/14,03:20,0.186,0.164,0.277,0.259,0.263,0.143,0.087,south-southwest,8.6,No
2019/11/14,03:30,0.186,0.163,0.277,0.261,0.261,0.142,0.087,south-southwest,9.8,No
2019/11/14,03:40,0.185,0.164,0.276,0.260,0.262,0.142,0.087,south-southwest,9.2,No
2019/11/14,03:50,0.187,0.163,0.277,0.259,0.261,0.143,0.087,south-southwest,9.5,No
2019/11/14,04:00,0.186,0.163,0.278,0.260,0.262,0.143,0.087,southwest,7.6,No
2019/11/14,04:10,0.188,0.164,0.276,0.260,0.260,0.142,0.088,southwest,7.5,No
2019/11/14,04:20,0.186,0.165,0.277,0.261,0.261,0.142,0.088,southwest,8.8,No
2019/11/14,04:30,0.188,0.163,0.277,0.259,0.262,0.141,0.088,southwest,9.5,No
2019/11/14,04:40,0.186,0.165,0.277,0.261,0.261,0.143,0.088,west-southwest,7.3,No
2019/11/14,04:50,0.188,0.164,0.276,0.258,0.263,0.143,0.087,southwest,8.1,No
2019/11/14,05:00,0.187,0.165,0.278,0.261,0.260,0.143,0.088,southwest,9.0,No
2019/11/14,05:10,0.187,0.164,0.277,0.261,0.263,0.142,0.088,southwest,8.8,No
2019/11/14,05:20,0.186,0.164,0.277,0.260,0.260,0.144,0.087,southwest,9.2,No
2019/11/14,05:30,0.186,0.163,0.277,0.260,0.263,0.143,0.088,southwest,9.3,No
2019/11/14,05:40,0.187,0.164,0.277,0.259,0.261,0.142,0.087,southwest,8.4,No
2019/11/14,05:50,0.186,0.164,0.278,0.261,0.261,0.143,0.088,southwest,7.9,No
2019/11/14,06:00,0.187,0.164,0.276,0.259,0.262,0.143,0.087,southwest,7.7,No
2019/11/14,06:10,0.186,0.164,0.278,0.261,0.261,0.143,0.087,southwest,6.5,No
2019/11/14,06:20,0.188,0.163,0.278,0.259,0.262,0.142,0.088,southwest,6.3,No
2019/11/14,06:30,0.185,0.165,0.279,0.261,0.260,0.143,0.087,south-southwest,6.1,No
2019/11/14,06:40,0.187,0.165,0.277,0.260,0.263,0.143,0.088,southwest,6.1,No
2019/11/14,06:50,0.186,0.164,0.278,0.260,0.261,0.143,0.088,southwest,8.3,No
2019/11/14,07:00,0.186,0.165,0.278,0.261,0.264,0.142,0.088,southwest,5.8,No
2019/11/14,07:10,0.187,0.164,0.276,0.259,0.261,0.144,0.088,west-southwest,5.3,No
2019/11/14,07:20,0.186,0.165,0.280,0.261,0.262,0.143,0.087,southwest,6.2,No
2019/11/14,07:30,0.186,0.164,0.276,0.260,0.262,0.144,0.088,south-southwest,3.5,No
2019/11/14,07:40,0.187,0.166,0.279,0.261,0.262,0.142,0.087,south-southwest,4.1,No
2019/11/14,07:50,0.188,0.164,0.276,0.259,0.261,0.144,0.089,south-southwest,5.9,No
2019/11/14,08:00,0.187,0.165,0.279,0.262,0.263,0.143,0.088,southwest,4.6,No
2019/11/14,08:10,0.188,0.164,0.277,0.258,0.262,0.143,0.088,west-southwest,5.5,No
2019/11/14,08:20,0.186,0.164,0.279,0.260,0.261,0.143,0.087,west-southwest,4.5,No
2019/11/14,08:30,0.188,0.165,0.277,0.261,0.263,0.143,0.088,west-southwest,3.9,No
2019/11/14,08:40,0.186,0.165,0.278,0.261,0.261,0.142,0.088,southwest,2.6,No
2019/11/14,08:50,0.188,0.165,0.277,0.260,0.262,0.142,0.088,west-southwest,1.9,No
2019/11/14,09:00,0.186,0.164,0.278,0.261,0.262,0.142,0.087,west,2.0,No
2019/11/14,09:10,0.187,0.166,0.276,0.259,0.262,0.143,0.088,west-northwest,4.2,No
2019/11/14,09:20,0.186,0.163,0.278,0.261,0.263,0.143,0.088,west,2.8,No
2019/11/14,09:30,0.187,0.165,0.276,0.259,0.261,0.142,0.087,west-northwest,2.7,No
2019/11/14,09:40,0.187,0.163,0.278,0.261,0.263,0.143,0.087,west,3.4,No
2019/11/14,09:50,0.186,0.165,0.277,0.259,0.259,0.144,0.087,west,10.7,No
2019/11/14,10:00,0.187,0.163,0.278,0.260,0.262,0.144,0.089,west,14.2,No
2019/11/14,10:10,0.186,0.164,0.277,0.260,0.261,0.142,0.087,west,15.1,No
2019/11/14,10:20,0.187,0.164,0.279,0.260,0.262,0.144,0.088,west,13.6,No
2019/11/14,10:30,0.186,0.163,0.278,0.261,0.261,0.143,0.089,west,15.4,No
2019/11/14,10:40,0.187,0.165,0.279,0.261,0.263,0.145,0.087,west-northwest,14.9,No
2019/11/14,10:50,0.187,0.164,0.277,0.261,0.262,0.143,0.088,west-northwest,14.5,No
2019/11/14,11:00,0.187,0.165,0.279,0.260,0.262,0.144,0.088,west-northwest,13.4,No
2019/11/14,11:10,0.188,0.165,0.278,0.263,0.263,0.143,0.089,west-northwest,15.0,No
2019/11/14,11:20,0.188,0.164,0.281,0.261,0.261,0.144,0.088,west,15.4,No
2019/11/14,11:30,0.188,0.165,0.279,0.261,0.263,0.144,0.088,west,14.2,No
2019/11/14,11:40,0.188,0.165,0.280,0.263,0.262,0.143,0.088,west,16.2,No
2019/11/14,11:50,0.189,0.164,0.279,0.259,0.262,0.144,0.087,west-northwest,15.6,No
2019/11/14,12:00,0.186,0.165,0.279,0.259,0.263,0.143,0.088,west,14.9,No
2019/11/14,12:10,0.187,0.165,0.280,0.262,0.261,0.143,0.087,west,14.5,No
2019/11/14,12:20,0.188,0.165,0.280,0.258,0.263,0.143,0.088,west,16.9,No
2019/11/14,12:30,0.187,0.164,0.281,0.258,0.263,0.144,0.088,west-northwest,13.1,No
2019/11/14,12:40,0.187,0.164,0.280,0.261,0.261,0.144,0.088,west,18.8,No
2019/11/14,12:50,0.186,0.165,0.280,0.261,0.264,0.144,0.087,west,17.8,No
2019/11/14,13:00,0.188,0.165,0.280,0.259,0.262,0.144,0.089,west,16.9,No
2019/11/14,13:10,0.186,0.164,0.282,0.261,0.264,0.143,0.087,west,18.6,No
2019/11/14,13:20,0.189,0.163,0.280,0.261,0.263,0.144,0.088,west-northwest,15.6,No
2019/11/14,13:30,0.190,0.165,0.281,0.259,0.263,0.144,0.087,west-northwest,13.4,No
2019/11/14,13:40,0.187,0.165,0.279,0.264,0.264,0.145,0.088,west-northwest,11.2,No
2019/11/14,13:50,0.188,0.165,0.281,0.262,0.262,0.143,0.088,west-northwest,13.1,No
2019/11/14,14:00,0.189,0.165,0.280,0.261,0.264,0.144,0.088,northwest,11.2,No
2019/11/14,14:10,0.188,0.166,0.281,0.263,0.262,0.144,0.089,west-northwest,8.6,No
2019/11/14,14:20,0.189,0.165,0.280,0.261,0.263,0.143,0.088,west-northwest,12.0,No
2019/11/14,14:30,0.189,0.166,0.282,0.264,0.264,0.144,0.088,west-northwest,11.7,No
2019/11/14,14:40,0.190,0.165,0.281,0.261,0.264,0.144,0.089,west-northwest,11.5,No
2019/11/14,14:50,0.189,0.166,0.281,0.262,0.264,0.143,0.088,northwest,10.6,No
2019/11/14,15:00,0.189,0.165,0.283,0.262,0.264,0.144,0.088,northwest,13.9,No
2019/11/14,15:10,0.189,0.165,0.282,0.264,0.265,0.143,0.088,northwest,10.3,No
2019/11/14,15:20,0.188,0.165,0.282,0.264,0.263,0.145,0.088,northwest,8.5,No
2019/11/14,15:30,0.189,0.165,0.282,0.262,0.265,0.144,0.088,west-northwest,10.9,No
2019/11/14,15:40,0.188,0.166,0.281,0.263,0.262,0.144,0.088,west-northwest,10.3,No
2019/11/14,15:50,0.189,0.165,0.283,0.263,0.264,0.144,0.088,northwest,12.0,No
2019/11/14,16:00,0.188,0.166,0.280,0.263,0.264,0.143,0.087,northwest,8.5,No
2019/11/14,16:10,0.189,0.166,0.283,0.264,0.263,0.144,0.088,northwest,9.7,No
2019/11/14,16:20,0.189,0.165,0.281,0.262,0.266,0.144,0.089,northwest,7.5,No
2019/11/14,16:30,0.188,0.166,0.282,0.263,0.263,0.144,0.088,north-northwest,11.2,No
2019/11/14,16:40,0.188,0.166,0.281,0.263,0.265,0.143,0.088,north-northwest,7.1,No
2019/11/14,16:50,0.189,0.165,0.281,0.262,0.266,0.144,0.088,north-northwest,6.9,No
2019/11/14,17:00,0.189,0.165,0.280,0.263,0.262,0.144,0.088,north,6.7,No
2019/11/14,17:10,0.188,0.167,0.282,0.265,0.264,0.144,0.088,north,8.4,No
2019/11/14,17:20,0.190,0.165,0.282,0.263,0.264,0.145,0.088,north,7.3,No
2019/11/14,17:30,0.190,0.167,0.279,0.263,0.264,0.144,0.088,north,7.0,No
2019/11/14,17:40,0.190,0.166,0.280,0.261,0.264,0.144,0.089,north,7.7,No
2019/11/14,17:50,0.189,0.165,0.281,0.264,0.263,0.144,0.088,north-northwest,7.1,No
2019/11/14,18:00,0.189,0.166,0.280,0.263,0.263,0.144,0.088,north-northwest,6.9,No
2019/11/14,18:10,0.188,0.167,0.280,0.263,0.265,0.145,0.088,north,6.7,No
2019/11/14,18:20,0.189,0.164,0.281,0.262,0.264,0.145,0.089,north-northwest,4.8,No
2019/11/14,18:30,0.189,0.167,0.280,0.264,0.264,0.144,0.088,north-northwest,5.9,No
2019/11/14,18:40,0.189,0.166,0.281,0.263,0.263,0.144,0.088,northwest,10.1,No
2019/11/14,18:50,0.190,0.166,0.280,0.264,0.263,0.144,0.088,northwest,8.3,No
2019/11/14,19:00,0.188,0.166,0.280,0.264,0.264,0.143,0.088,north-northwest,6.4,No
2019/11/14,19:10,0.189,0.166,0.281,0.263,0.263,0.144,0.088,northwest,5.9,No
2019/11/14,19:20,0.189,0.165,0.281,0.263,0.263,0.145,0.089,north-northwest,7.1,No
2019/11/14,19:30,0.189,0.165,0.279,0.264,0.264,0.144,0.088,north-northwest,5.7,No
2019/11/14,19:40,0.188,0.165,0.279,0.262,0.264,0.144,0.088,north-northwest,4.7,No
2019/11/14,19:50,0.189,0.165,0.281,0.262,0.263,0.145,0.088,north-northwest,5.5,No
2019/11/14,20:00,0.190,0.166,0.281,0.265,0.264,0.144,0.088,north,4.5,No
2019/11/14,20:10,0.189,0.165,0.280,0.262,0.263,0.144,0.088,north,3.6,No
2019/11/14,20:20,0.188,0.166,0.281,0.263,0.264,0.144,0.088,north-northwest,6.5,No
2019/11/14,20:30,0.190,0.165,0.282,0.262,0.263,0.144,0.088,north-northwest,5.9,No
2019/11/14,20:40,0.188,0.166,0.282,0.263,0.264,0.145,0.089,north,4.9,No
2019/11/14,20:50,0.189,0.166,0.280,0.263,0.264,0.145,0.088,north,4.9,No
2019/11/14,21:00,0.190,0.165,0.280,0.263,0.262,0.144,0.089,north,5.3,No
2019/11/14,21:10,0.189,0.165,0.281,0.263,0.263,0.144,0.088,north,5.9,No
2019/11/14,21:20,0.189,0.166,0.281,0.263,0.263,0.144,0.089,north,6.8,No
2019/11/14,21:30,0.189,0.166,0.281,0.263,0.263,0.144,0.088,north,7.2,No
2019/11/14,21:40,0.189,0.165,0.280,0.264,0.263,0.144,0.088,north,6.3,No
2019/11/14,21:50,0.190,0.166,0.281,0.264,0.264,0.143,0.089,north,6.0,No
2019/11/14,22:00,0.190,0.166,0.281,0.263,0.263,0.143,0.089,north,6.7,No
2019/11/14,22:10,0.190,0.165,0.280,0.262,0.263,0.144,0.089,north,7.4,No
2019/11/14,22:20,0.189,0.166,0.280,0.262,0.263,0.143,0.088,north,6.1,No
2019/11/14,22:30,0.189,0.167,0.282,0.263,0.264,0.143,0.088,north,6.0,No
2019/11/14,22:40,0.189,0.166,0.279,0.261,0.264,0.145,0.088,north,6.3,No
2019/11/14,22:50,0.189,0.166,0.279,0.262,0.263,0.144,0.088,north,5.5,No
2019/11/14,23:00,0.189,0.166,0.281,0.262,0.263,0.144,0.088,north,3.7,No
2019/11/14,23:10,0.189,0.167,0.282,0.263,0.264,0.144,0.088,north,5.0,No
2019/11/14,23:20,0.189,0.165,0.280,0.263,0.263,0.144,0.089,north,5.6,No
2019/11/14,23:30,0.189,0.165,0.280,0.262,0.262,0.144,0.088,north,5.1,No
2019/11/14,23:40,0.189,0.165,0.280,0.263,0.262,0.143,0.088,north-northwest,4.9,No
2019/11/14,23:50,0.189,0.166,0.281,0.263,0.263,0.144,0.089,north,5.5,No
